Date,TemperatureHighF,TemperatureAvgF,TemperatureLowF,DewpointHighF,DewpointAvgF,DewpointLowF,HumidityHigh,HumidityAvg,HumidityLow,PressureMaxIn,PressureMinIn,WindSpeedMaxMPH,WindSpeedAvgMPH,GustSpeedMaxMPH,PrecipitationSumIn
2013-2-1,-200,0,200,-100,-100,-100,91,72,61,0.00,40.00,14,9,21,0.00
2013-2-2,-200,0,200,-100,-100,-100,95,80,54,0.00,40.00,15,6,20,0.00
2013-2-3,-200,0,200,-100,-100,-100,98,80,60,0.00,40.00,19,7,26,0.00
2013-2-4,-200,0,200,-100,-100,-100,99,86,66,0.00,40.00,14,7,20,0.00
2013-2-5,-200,0,200,-100,-100,-100,96,89,77,0.00,40.00,11,5,18,0.00
2013-2-6,-200,0,200,-100,-100,-100,97,79,65,0.00,40.00,13,7,17,0.00
2013-2-7,-200,0,200,-100,-100,-100,99,97,88,0.00,40.00,18,8,26,0.00
2013-2-8,-200,0,200,-100,-100,-100,99,83,58,0.00,40.00,16,8,28,0.00
2013-2-9,-200,0,200,-100,-100,-100,99,94,83,0.00,40.00,20,9,26,0.00
2013-2-10,-200,0,200,-100,-100,-100,99,99,99,0.00,40.00,15,14,26,0.00
2013-2-11,-200,0,200,-100,-100,-100,86,76,71,0.00,40.00,28,19,46,0.00
2013-2-12,-200,0,200,-100,-100,-100,94,80,65,0.00,40.00,16,9,26,0.00
2013-2-13,-200,0,200,-100,-100,-100,99,88,66,0.00,40.00,12,3,16,0.00
2013-2-14,-200,0,200,-100,-100,-100,88,78,58,0.00,40.00,20,11,32,0.00
2013-2-15,-200,0,200,-100,-100,-100,90,64,47,0.00,40.00,17,11,28,0.00
2013-2-16,-200,0,200,-100,-100,-100,80,68,58,0.00,40.00,16,8,23,0.00
2013-2-17,-200,0,200,-100,-100,-100,95,71,53,0.00,40.00,16,8,24,0.00
2013-2-18,-200,0,200,-100,-100,-100,99,83,62,0.00,40.00,24,12,35,0.00
2013-2-19,-200,0,200,-100,-100,-100,88,78,71,0.00,40.00,27,18,37,0.00
2013-2-20,-200,0,200,-100,-100,-100,91,72,61,0.00,40.00,12,7,19,0.00
2013-2-21,-200,0,200,-100,-100,-100,99,91,84,0.00,40.00,25,9,34,0.00
2013-2-22,-200,0,200,-100,-100,-100,99,99,99,0.00,40.00,18,14,28,0.00
2013-2-24,-200,0,200,-100,-100,-100,95,76,55,0.00,40.00,4,1,5,0.00
2013-2-25,-200,0,200,-100,-100,-100,99,81,65,0.00,40.00,10,4,15,0.00
2013-2-26,-200,0,200,-100,-100,-100,99,85,72,0.00,40.00,19,13,34,0.00
2013-2-27,-200,0,200,-100,-100,-100,99,96,87,0.00,40.00,16,12,24,0.00
2013-2-28,-200,0,200,-100,-100,-100,99,82,63,0.00,40.00,17,10,23,0.00